N124MC KTTD-KDLS

Flight info

Callsign N124MC
Flight time 0h 20m
Altitude 1500
Route VFR
Aircraft M20P/L-VGD/C

Departure

Time 2026-05-06 18:06
Airport Portland Troutdale Airport (KTTD)

Arrival

Time 2026-05-06 18:27
Airport Columbia Gorge Regional Airport (KDLS)
Time Latitude Longitude Altitude Speed Heading
2026-05-06 18:04 45.55000 -122.41173 30 ft 0 kts 236°
2026-05-06 18:05 45.54939 -122.41157 30 ft 16 kts 146°
2026-05-06 18:05 45.54924 -122.40937 29 ft 43 kts 89°
2026-05-06 18:05 45.54936 -122.40281 53 ft 84 kts 87°
2026-05-06 18:06 45.54958 -122.39382 276 ft 95 kts 88°
2026-05-06 18:06 45.54949 -122.38411 549 ft 99 kts 91°
2026-05-06 18:06 45.54930 -122.37443 838 ft 96 kts 91°
2026-05-06 18:06 45.54909 -122.36460 1004 ft 109 kts 91°
2026-05-06 18:07 45.54928 -122.35261 1013 ft 131 kts 86°
2026-05-06 18:07 45.54982 -122.33895 1015 ft 144 kts 86°
2026-05-06 18:07 45.55039 -122.32422 1010 ft 153 kts 86°
2026-05-06 18:07 45.55097 -122.30874 1010 ft 159 kts 86°
2026-05-06 18:08 45.55159 -122.29275 1007 ft 164 kts 86°
2026-05-06 18:08 45.55222 -122.27649 1067 ft 162 kts 86°
2026-05-06 18:08 45.55282 -122.26067 1193 ft 158 kts 86°
2026-05-06 18:08 45.55349 -122.24519 1318 ft 155 kts 82°
2026-05-06 18:09 45.55605 -122.23033 1444 ft 154 kts 73°
2026-05-06 18:09 45.55907 -122.21549 1489 ft 159 kts 71°
2026-05-06 18:09 45.56320 -122.20055 1492 ft 164 kts 66°
2026-05-06 18:09 45.56763 -122.18536 1492 ft 167 kts 67°
2026-05-06 18:10 45.57211 -122.17002 1491 ft 168 kts 67°
2026-05-06 18:10 45.57661 -122.15462 1489 ft 169 kts 66°
2026-05-06 18:10 45.58111 -122.13901 1495 ft 171 kts 67°
2026-05-06 18:10 45.58560 -122.12327 1493 ft 171 kts 67°
2026-05-06 18:11 45.58988 -122.10743 1489 ft 171 kts 70°
2026-05-06 18:11 45.59349 -122.09123 1488 ft 172 kts 71°
2026-05-06 18:11 45.59705 -122.07490 1484 ft 172 kts 71°
2026-05-06 18:11 45.60064 -122.05855 1479 ft 173 kts 70°
2026-05-06 18:12 45.60526 -122.04281 1477 ft 171 kts 63°
2026-05-06 18:12 45.61112 -122.02802 1484 ft 172 kts 57°
2026-05-06 18:12 45.61727 -122.01332 1474 ft 173 kts 58°
2026-05-06 18:12 45.62340 -121.99837 1471 ft 175 kts 58°
2026-05-06 18:13 45.62958 -121.98322 1463 ft 177 kts 58°
2026-05-06 18:13 45.63579 -121.96796 1465 ft 178 kts 57°
2026-05-06 18:13 45.64193 -121.95254 1460 ft 179 kts 57°
2026-05-06 18:13 45.64835 -121.93734 1451 ft 178 kts 51°
2026-05-06 18:14 45.65602 -121.92356 1447 ft 176 kts 47°
2026-05-06 18:14 45.66340 -121.91070 1489 ft 171 kts 48°
2026-05-06 18:14 45.67101 -121.89787 1498 ft 168 kts 47°
2026-05-06 18:14 45.67849 -121.88489 1505 ft 170 kts 47°
2026-05-06 18:15 45.68605 -121.87168 1501 ft 173 kts 47°
2026-05-06 18:15 45.69367 -121.85821 1502 ft 175 kts 49°
2026-05-06 18:15 45.70129 -121.84459 1486 ft 175 kts 46°
2026-05-06 18:15 45.70884 -121.83095 1474 ft 175 kts 53°
2026-05-06 18:16 45.71126 -121.81411 1475 ft 179 kts 97°
2026-05-06 18:16 45.70871 -121.79683 1482 ft 177 kts 104°
2026-05-06 18:16 45.70552 -121.77972 1485 ft 179 kts 104°
2026-05-06 18:16 45.70232 -121.76248 1487 ft 180 kts 104°
2026-05-06 18:17 45.69904 -121.74522 1484 ft 179 kts 104°
2026-05-06 18:17 45.69595 -121.72797 1484 ft 178 kts 102°
2026-05-06 18:17 45.69523 -121.71038 1467 ft 178 kts 81°
2026-05-06 18:17 45.69730 -121.69296 1474 ft 178 kts 78°
2026-05-06 18:18 45.69975 -121.67555 1474 ft 180 kts 76°
2026-05-06 18:18 45.70204 -121.65792 1467 ft 181 kts 76°
2026-05-06 18:18 45.70428 -121.64018 1467 ft 181 kts 76°
2026-05-06 18:18 45.70641 -121.62246 1454 ft 181 kts 76°
2026-05-06 18:19 45.70860 -121.60485 1456 ft 179 kts 76°
2026-05-06 18:19 45.71077 -121.58725 1449 ft 181 kts 76°
2026-05-06 18:19 45.71292 -121.56976 1445 ft 181 kts 76°
2026-05-06 18:19 45.71504 -121.55188 1441 ft 180 kts 76°
2026-05-06 18:20 45.71712 -121.53440 1442 ft 181 kts 76°
2026-05-06 18:20 45.71905 -121.51623 1432 ft 183 kts 84°
2026-05-06 18:20 45.71716 -121.49843 1425 ft 185 kts 107°
2026-05-06 18:20 45.71265 -121.48116 1427 ft 185 kts 113°
2026-05-06 18:21 45.70737 -121.46431 1427 ft 186 kts 115°
2026-05-06 18:21 45.70190 -121.44727 1426 ft 186 kts 115°
2026-05-06 18:21 45.69703 -121.43018 1426 ft 185 kts 109°
2026-05-06 18:21 45.69365 -121.41244 1421 ft 185 kts 95°
2026-05-06 18:22 45.69422 -121.39415 1421 ft 184 kts 72°
2026-05-06 18:22 45.69765 -121.37674 1491 ft 179 kts 69°
2026-05-06 18:22 45.70047 -121.35928 1503 ft 182 kts 75°
2026-05-06 18:22 45.70077 -121.34102 1491 ft 186 kts 95°
2026-05-06 18:23 45.69789 -121.32299 1491 ft 186 kts 107°
2026-05-06 18:23 45.69349 -121.30555 1496 ft 187 kts 110°
2026-05-06 18:23 45.68856 -121.28842 1495 ft 186 kts 112°
2026-05-06 18:23 45.68360 -121.27162 1497 ft 186 kts 112°
2026-05-06 18:24 45.67851 -121.25438 1497 ft 186 kts 112°
2026-05-06 18:24 45.67294 -121.23772 1497 ft 186 kts 119°
2026-05-06 18:24 45.66605 -121.22225 1413 ft 189 kts 134°
2026-05-06 18:24 45.65490 -121.21223 1305 ft 185 kts 159°
2026-05-06 18:25 45.64378 -121.20501 1279 ft 167 kts 160°
2026-05-06 18:25 45.63393 -121.19819 1270 ft 148 kts 160°
2026-05-06 18:25 45.62567 -121.19166 1333 ft 133 kts 153°
2026-05-06 18:25 45.61854 -121.18474 1177 ft 120 kts 148°
2026-05-06 18:26 45.61218 -121.17737 1009 ft 117 kts 147°
2026-05-06 18:26 45.60616 -121.17009 807 ft 112 kts 140°
2026-05-06 18:26 45.60160 -121.16168 703 ft 107 kts 88°
2026-05-06 18:26 45.60426 -121.15443 552 ft 64 kts 348°
2026-05-06 18:27 45.60752 -121.15722 413 ft 56 kts 325°
2026-05-06 18:27 45.61058 -121.16030 312 ft 47 kts 321°
2026-05-06 18:27 45.61323 -121.16302 245 ft 43 kts 320°
2026-05-06 18:27 45.61508 -121.16492 235 ft 25 kts 326°
2026-05-06 18:28 45.61613 -121.16647 231 ft 21 kts 289°
2026-05-06 18:28 45.61645 -121.16858 230 ft 25 kts 284°
2026-05-06 18:28 45.61749 -121.17013 227 ft 20 kts 323°
2026-05-06 18:28 45.61791 -121.17097 225 ft 9 kts 282°
2026-05-06 18:29 45.61803 -121.17117 225 ft 0 kts 327°